Overview Statistics Trail Chart Weather Telemetry Raw packets
 

This is the latest recevied weather packets stored in our database for station/object EA5JMY-10. If no packets are shown the sender has not sent any weather packets the latest 10 day(s).

<< 16 17 18 19 20 21 22 >>
Time Temp. Humidity Pressure Rain* Wind** Luminosity Snow
1788235806 26.11° C 73% 1019.9 hPa - - - -
1788234906 26.11° C 71% 1020.2 hPa - - - -
1788234006 25.56° C 74% 1020.4 hPa - - - -
1788233106 26.11° C 73% 1020.6 hPa - - - -
1788232206 26.11° C 75% 1020.3 hPa - - - -
1788231305 26.11° C 74% 1020.4 hPa - - - -
1788230405 26.11° C 78% 1020.4 hPa - - - -
1788229505 26.11° C 79% 1020.5 hPa - - - -
1788228605 25.56° C 81% 1020.5 hPa - - - -
1788227705 25.56° C 80% 1020.7 hPa - - - -
1788226805 25.56° C 80% 1020.9 hPa - - - -
1788225911 25° C 79% 1021 hPa - - - -
1788225005 25.56° C 78% 1021.1 hPa - - - -
1788224105 25.56° C 79% 1021.2 hPa - - - -
1788223204 25.56° C 78% 1021.3 hPa - - - -
1788222304 25.56° C 79% 1021.4 hPa - - - -
1788221404 26.11° C 78% 1021.3 hPa - - - -
1788220504 25.56° C 79% 1021.4 hPa - - - -
1788219604 25.56° C 78% 1021.2 hPa - - - -
1788218704 26.11° C 77% 1021.3 hPa - - - -
1788217804 26.11° C 77% 1021.2 hPa - - - -
1788216904 26.11° C 76% 1021.3 hPa - - - -
1788216021 26.11° C 76% 1021.2 hPa - - - -
1788215103 26.67° C 76% 1021.1 hPa - - - -
1788214203 26.67° C 75% 1021 hPa - - - -

* Rain since midnight (hover to see other rain measurements)
** Current wind speed in m/s (hover to see current wind gust speed)